EW2546 Weather Reports


Display with metric or nautical units.
time (UTC)temp
F
wind
direction
speed
MPH
gust
MPH
rain 1hr
in
rain 24hr
in
rain mn
in
humidity
%
barometer
mb
20260502195529 49 0 0.0 1.0 0.00 0.06 0.06 87 1011.4
20260502195024 49 0 0.0 1.0 0.00 0.06 0.06 87 1011.3
20260502194542 49 0 0.0 0.0 0.00 0.06 0.06 86 1011.3
20260502194028 49 0 0.0 0.0 0.00 0.06 0.06 87 1011.4
20260502193523 48 0 0.0 0.0 0.00 0.06 0.06 87 1011.4
20260502193042 48 0 0.0 0.0 0.00 0.06 0.06 88 1011.5
20260502192526 48 0 0.0 0.0 0.00 0.06 0.06 89 1011.6
20260502192030 48 0 0.0 0.0 0.00 0.06 0.06 88 1011.7
20260502191536 48 0 0.0 0.0 0.00 0.06 0.06 88 1011.8
20260502191025 48 0 0.0 0.0 0.00 0.06 0.06 88 1011.8
20260502190526 48 0 0.0 0.0 0.00 0.06 0.06 88 1011.9
20260502190042 48 0 0.0 0.0 0.00 0.06 0.06 88 1012.0
20260502185530 48 0 0.0 0.0 0.00 0.06 0.06 89 1012.1
20260502185028 48 0 0.0 0.0 0.00 0.06 0.06 89 1012.1
20260502184558 47 0 0.0 0.0 0.00 0.06 0.06 89 1012.2
20260502184026 47 0 0.0 0.0 0.00 0.06 0.06 89 1012.2
20260502183525 47 0 0.0 0.0 0.00 0.06 0.06 88 1012.3
20260502183041 47 0 0.0 0.0 0.00 0.06 0.06 88 1012.3
20260502182523 47 0 0.0 0.0 0.00 0.06 0.06 88 1012.4
20260502182025 47 0 0.0 0.0 0.00 0.06 0.06 89 1012.4
20260502181539 47 0 0.0 0.0 0.00 0.06 0.06 89 1012.3
20260502181026 47 0 0.0 0.0 0.01 0.06 0.06 89 1012.3
20260502180529 46 0 0.0 0.0 0.01 0.06 0.06 89 1012.4
20260502164025 44 0 0.0 1.0 0.00 0.05 0.05 89 1012.4
20260502163525 44 0 0.0 1.0 0.00 0.05 0.05 89 1012.3
20260502163042 44 0 0.0 0.0 0.00 0.05 0.05 88 1012.5
20260502162525 44 0 0.0 1.0 0.00 0.05 0.05 88 1012.5
20260502162030 44 0 0.0 3.0 0.00 0.05 0.05 87 1012.5
20260502161538 44 0 0.0 3.0 0.00 0.05 0.05 86 1012.5
20260502161024 44 0 0.0 1.0 0.00 0.05 0.05 87 1012.6
20260502160529 44 0 0.0 6.0 0.00 0.05 0.05 87 1012.7
20260502152024 43 0 0.0 5.0 0.01 0.05 0.05 90 1012.7
20260502151538 43 112 0.0 4.0 0.01 0.05 0.05 89 1013.0
20260502151028 43 0 0.0 3.0 0.01 0.05 0.05 88 1013.2
20260502150525 43 0 0.0 4.0 0.01 0.05 0.05 88 1013.3
20260502130528 40 0 0.0 0.0 0.02 0.02 0.02 93 1013.7
20260502123527 40 0 0.0 0.0 0.01 0.01 0.01 93 1014.0
20260502123056 40 0 0.0 0.0 0.01 0.01 0.01 93 1014.0
20260502122526 40 0 0.0 0.0 0.01 0.01 0.01 93 1014.0
20260502122030 40 0 0.0 0.0 0.01 0.01 0.01 93 1014.1
20260502121539 40 0 0.0 0.0 0.01 0.01 0.01 93 1013.9
20260502121027 40 0 0.0 0.0 0.01 0.01 0.01 92 1014.0
20260502120527 39 0 0.0 0.0 0.00 0.00 0.00 92 1014.0
20260502115528 40 0 0.0 0.0 0.00 0.00 0.00 93 1013.9
20260502115028 39 0 0.0 0.0 0.00 0.00 0.00 93 1013.9
20260502114544 39 0 0.0 0.0 0.00 0.00 0.00 93 1013.8
20260502114028 39 0 0.0 0.0 0.00 0.00 0.00 93 1013.9
20260502113529 39 0 0.0 0.0 0.00 0.00 0.00 93 1014.1
20260502113043 39 0 0.0 0.0 0.00 0.00 0.00 92 1013.9
20260502112525 39 0 0.0 0.0 0.00 0.00 0.00 92 1013.9
20260502112023 38 0 0.0 0.0 0.00 0.00 0.00 92 1013.9
20260502111542 38 0 0.0 0.0 0.00 0.00 0.00 92 1013.9
20260502111026 38 0 0.0 0.0 0.00 0.00 0.00 92 1014.0
20260502110526 38 0 0.0 0.0 0.00 0.00 0.00 92 1014.0
20260502110041 38 0 0.0 0.0 0.00 0.00 0.00 92 1014.0
20260502105525 38 0 0.0 0.0 0.00 0.00 0.00 92 1013.9
20260502105025 38 0 0.0 0.0 0.00 0.00 0.00 92 1013.9
20260502104543 37 0 0.0 0.0 0.00 0.00 0.00 92 1013.5
20260502104023 37 0 0.0 0.0 0.00 0.00 0.00 92 1013.3
20260502103522 37 0 0.0 0.0 0.00 0.00 0.00 92 1013.4
20260502103038 36 0 0.0 0.0 0.00 0.00 0.00 92 1013.3
20260502102523 36 0 0.0 0.0 0.00 0.00 0.00 92 1013.3
20260502102023 36 0 0.0 0.0 0.00 0.00 0.00 92 1013.0
20260502101559 35 0 0.0 0.0 0.00 0.00 0.00 92 1013.1
20260502101023 35 0 0.0 0.0 0.00 0.00 0.00 92 1013.0
20260502100526 35 0 0.0 0.0 0.00 0.00 0.00 92 1012.9
20260502091023 36 0 0.0 0.0 0.00 0.00 0.00 89 1012.7
20260502090527 36 0 0.0 0.0 0.00 0.00 0.00 89 1012.8
20260502071023 35 0 0.0 0.0 0.00 0.00 0.00 89 1012.6
20260502070526 35 0 0.0 0.0 0.00 0.00 0.00 90 1012.6
20260502070050 35 0 0.0 0.0 0.00 0.00 0.00 90 1012.5
20260502065524 34 0 0.0 0.0 0.00 0.00 0.00 89 1012.5
20260502065022 34 0 0.0 0.0 0.00 0.00 0.00 90 1012.5
20260502064543 34 0 0.0 0.0 0.00 0.00 0.00 90 1012.4
20260502064023 34 0 0.0 0.0 0.00 0.00 0.00 90 1012.5
20260502063523 34 0 0.0 0.0 0.00 0.00 0.00 90 1012.4
20260502063037 34 0 0.0 0.0 0.00 0.00 0.00 90 1012.5
20260502062526 33 0 0.0 0.0 0.00 0.00 0.00 90 1012.3
20260502062026 33 0 0.0 0.0 0.00 0.00 0.00 90 1012.4
20260502061536 33 0 0.0 0.0 0.00 0.00 0.00 90 1012.4
20260502061022 33 0 0.0 0.0 0.00 0.00 0.00 89 1012.4
20260502060525 33 0 0.0 0.0 0.00 0.00 0.00 89 1012.3
20260502060038 33 0 0.0 0.0 0.00 0.00 0.00 89 1012.4
20260502055528 33 0 0.0 0.0 0.00 0.00 0.00 88 1012.3
20260502055024 33 0 0.0 0.0 0.00 0.00 0.00 88 1012.3
20260502054541 33 0 0.0 0.0 0.00 0.00 0.00 88 1012.3
20260502054023 33 0 0.0 0.0 0.00 0.00 0.00 87 1012.3
20260502053528 33 0 0.0 0.0 0.00 0.00 0.00 87 1012.3
20260502053042 33 0 0.0 0.0 0.00 0.00 0.00 87 1012.3
20260502052525 33 0 0.0 0.0 0.00 0.00 0.00 86 1012.3
20260502052023 34 0 0.0 0.0 0.00 0.00 0.00 86 1012.2
20260502051540 34 0 0.0 0.0 0.00 0.00 0.00 86 1012.3
20260502051023 34 0 0.0 0.0 0.00 0.00 0.00 86 1012.3
20260502050523 34 0 0.0 0.0 0.00 0.00 0.00 86 1012.4
20260502050043 34 0 0.0 0.0 0.00 0.00 0.00 85 1012.4
20260502045527 34 0 0.0 0.0 0.00 0.00 0.00 85 1012.2
20260502045027 35 0 0.0 0.0 0.00 0.00 0.00 84 1012.2
20260502044542 35 0 0.0 0.0 0.00 0.00 0.00 84 1012.2
20260502044027 35 0 0.0 0.0 0.00 0.00 0.00 84 1012.2
20260502043526 35 0 0.0 0.0 0.00 0.00 0.00 83 1012.1
20260502043042 35 0 0.0 0.0 0.00 0.00 0.00 83 1012.1
20260502042525 35 0 0.0 0.0 0.00 0.00 0.00 83 1012.0
20260502042026 35 0 0.0 0.0 0.00 0.00 0.00 82 1012.1
20260502041543 36 0 0.0 0.0 0.00 0.00 0.00 82 1012.1
20260502041026 36 0 0.0 0.0 0.00 0.00 0.00 82 1012.1
20260502040526 36 0 0.0 0.0 0.00 0.00 0.00 82 1012.1
20260502040043 36 0 0.0 0.0 0.00 0.00 0.00 82 1012.1
20260502035526 36 0 0.0 0.0 0.00 0.00 0.00 81 1012.2
20260502035026 37 0 0.0 0.0 0.00 0.00 0.00 81 1012.1
20260502034536 37 0 0.0 0.0 0.00 0.00 0.00 80 1012.1
20260502034026 37 0 0.0 0.0 0.00 0.00 0.00 80 1012.1
20260502033527 37 0 0.0 0.0 0.00 0.00 0.00 79 1012.0
20260502033048 37 0 0.0 0.0 0.00 0.00 0.00 78 1012.0
20260502032527 38 0 0.0 0.0 0.00 0.00 0.00 77 1012.0
20260502032025 38 0 0.0 0.0 0.00 0.00 0.00 77 1012.0
20260502031541 38 0 0.0 0.0 0.00 0.00 0.00 77 1012.0
20260502031027 38 0 0.0 0.0 0.00 0.00 0.00 76 1012.1
20260502030527 39 0 0.0 0.0 0.00 0.00 0.00 76 1012.0
20260502030052 39 0 0.0 0.0 0.00 0.00 0.00 75 1012.0
20260502025526 39 0 0.0 0.0 0.00 0.00 0.00 75 1011.9
20260502025028 39 0 0.0 0.0 0.00 0.00 0.00 74 1012.0
20260502024543 40 0 0.0 0.0 0.00 0.00 0.00 74 1012.1
20260502024026 40 0 0.0 0.0 0.00 0.00 0.00 73 1012.0
20260502023526 40 0 0.0 0.0 0.00 0.00 0.00 71 1011.9
20260502023050 40 0 0.0 0.0 0.00 0.00 0.00 71 1011.9
20260502022528 40 0 0.0 0.0 0.00 0.00 0.00 71 1011.9
20260502022026 41 0 0.0 0.0 0.00 0.00 0.00 70 1011.8
20260502021544 42 0 0.0 0.0 0.00 0.00 0.00 71 1011.9
20260502021027 42 0 0.0 0.0 0.00 0.00 0.00 70 1011.8
20260502020527 42 0 0.0 0.0 0.00 0.00 0.00 71 1011.9
20260502020037 43 0 0.0 0.0 0.00 0.00 0.00 70 1011.9
20260502015527 43 0 0.0 0.0 0.00 0.00 0.00 69 1011.8
20260502015026 43 0 0.0 0.0 0.00 0.00 0.00 68 1011.7
20260502014541 43 0 0.0 0.0 0.00 0.00 0.00 69 1011.7
20260502014025 44 0 0.0 0.0 0.00 0.00 0.00 65 1011.7
20260502013524 44 0 0.0 0.0 0.00 0.00 0.00 63 1011.5
20260502013040 44 0 0.0 0.0 0.00 0.00 0.00 60 1011.4
20260502012527 45 0 0.0 0.0 0.00 0.00 0.00 60 1011.4
20260502012025 45 0 0.0 0.0 0.00 0.00 0.00 59 1011.3
20260502011541 45 0 0.0 0.0 0.00 0.00 0.00 57 1011.5
20260502011023 45 0 0.0 0.0 0.00 0.00 0.00 55 1011.5
20260502010529 46 0 0.0 0.0 0.00 0.00 0.00 56 1011.4
20260502010039 46 0 0.0 0.0 0.00 0.00 0.00 54 1011.4
20260502005525 46 0 0.0 0.0 0.00 0.00 0.00 56 1011.4
20260502005022 47 0 0.0 0.0 0.00 0.00 0.00 55 1011.3
20260502004545 47 0 0.0 0.0 0.00 0.00 0.00 54 1011.2
20260502004027 48 0 0.0 0.0 0.00 0.00 0.00 55 1011.1
20260502003523 48 0 0.0 0.0 0.00 0.00 0.00 59 1011.0
20260502003041 48 0 0.0 0.0 0.00 0.00 0.00 57 1010.9
20260502002524 49 0 0.0 0.0 0.00 0.00 0.00 55 1010.8
20260502002026 49 0 0.0 0.0 0.00 0.00 0.00 52 1010.6
20260502001536 50 0 0.0 0.0 0.00 0.00 0.00 53 1010.4
20260502001023 50 0 0.0 0.0 0.00 0.00 0.00 50 1010.5
20260502000525 51 0 0.0 4.0 0.00 0.00 0.00 51 1010.2
20260502000035 51 0 0.0 4.0 0.00 0.00 0.00 55 1010.1
20260501235522 52 305 0.0 3.0 0.00 0.00 0.00 47 1010.0
20260501235023 52 0 0.0 4.0 0.00 0.00 0.00 44 1010.0
20260501234541 53 0 0.0 7.0 0.00 0.00 0.00 47 1009.8
20260501234023 53 290 1.0 7.0 0.00 0.00 0.00 41 1009.7
20260501233523 54 0 2.0 7.0 0.00 0.00 0.00 42 1009.6
20260501233038 54 0 0.0 4.0 0.00 0.00 0.00 42 1009.5
20260501232527 54 283 0.0 4.0 0.00 0.00 0.00 37 1009.5
20260501232023 54 263 0.0 9.0 0.00 0.00 0.00 42 1009.4
20260501231538 55 0 0.0 9.0 0.00 0.00 0.00 42 1009.3
20260501231023 55 297 1.0 9.0 0.00 0.00 0.00 39 1009.2
20260501230525 56 308 0.0 5.0 0.00 0.00 0.00 40 1009.1
20260501230037 56 313 1.0 7.0 0.00 0.00 0.00 36 1009.1
20260501225526 56 295 1.0 7.0 0.00 0.00 0.00 39 1009.0
20260501225026 57 0 0.0 8.0 0.00 0.00 0.00 38 1008.9
20260501224543 57 0 0.0 8.0 0.00 0.00 0.00 37 1008.8
20260501224029 58 326 1.0 8.0 0.00 0.00 0.00 33 1008.8
20260501223526 58 0 0.0 8.0 0.00 0.00 0.00 35 1008.7
20260501223050 58 0 1.0 8.0 0.00 0.00 0.00 35 1008.6
20260501222526 58 330 3.0 9.0 0.00 0.00 0.00 34 1008.5
20260501222026 59 299 3.0 9.0 0.00 0.00 0.00 34 1008.5
20260501221538 59 0 2.0 9.0 0.00 0.00 0.00 32 1008.3
20260501221028 59 305 2.0 9.0 0.00 0.00 0.00 33 1008.2
20260501220532 59 309 2.0 9.0 0.00 0.00 0.00 32 1008.1
20260501220040 60 0 0.0 5.0 0.00 0.00 0.00 36 1008.1
20260501215525 59 350 1.0 8.0 0.00 0.00 0.00 33 1008.1
20260501215025 60 267 2.0 8.0 0.00 0.00 0.00 35 1008.0
20260501214537 60 311 1.0 7.0 0.00 0.00 0.00 33 1008.0
20260501214025 60 290 1.0 9.0 0.00 0.00 0.00 32 1008.0
20260501213525 61 318 3.0 9.0 0.00 0.00 0.00 35 1007.9
20260501213042 61 272 1.0 7.0 0.00 0.00 0.00 32 1007.8
20260501212526 61 0 1.0 8.0 0.00 0.00 0.00 32 1007.9
20260501212025 61 0 1.0 8.0 0.00 0.00 0.00 36 1007.8
20260501211543 62 307 2.0 12.0 0.00 0.00 0.00 36 1007.8
20260501211025 62 297 4.0 12.0 0.00 0.00 0.00 35 1007.7
20260501210525 62 250 3.0 11.0 0.00 0.00 0.00 31 1007.7
20260501210041 63 299 0.0 10.0 0.00 0.00 0.00 33 1007.7
20260501205529 62 0 2.0 10.0 0.00 0.01 0.00 32 1007.6
20260501205025 62 0 1.0 7.0 0.00 0.01 0.00 33 1007.5
20260501204540 62 0 0.0 9.0 0.00 0.01 0.00 31 1007.5
20260501204027 62 290 3.0 10.0 0.00 0.01 0.00 30 1007.5
20260501203525 62 301 2.0 10.0 0.00 0.01 0.00 32 1007.4
20260501203050 62 340 2.0 10.0 0.00 0.01 0.00 33 1007.4
20260501202525 62 303 1.0 8.0 0.00 0.01 0.00 33 1007.3
20260501202025 62 0 1.0 8.0 0.00 0.01 0.00 29 1007.4
20260501201536 62 313 3.0 9.0 0.00 0.01 0.00 33 1007.3
20260501201024 62 292 3.0 9.0 0.00 0.01 0.00 31 1007.3
20260501200526 62 309 2.0 8.0 0.00 0.01 0.00 31 1007.1
20260501200043 62 295 2.0 14.0 0.00 0.01 0.00 35 1007.1